[[{"header":{"parameterUnit":"m.s-1","parameterCategory":1,"la1":30.2991,"la2":30.254,"lo1":-89.0895,"lo2":-89.0444,"dy":0.0017,"dx":0.0017,"nx":28,"ny":28,"refTime":"2023-08-01T21:00:00:Z","depth":0,"parameterNumber":2,"parameterNumberName":"U-component_of_WINDS"},"data":[0,0,0,0,0,0,0,0,0,0,0,0,0,0,0,0,0,0,0,0,0,0,0,0,0,0,0,0,0,0,0,0,0,0,0,0,0,0,0,0,0,0,0,0,0,0,0,0,0,0,0,0,0,0,0,0,0,0,2.5523,2.5524,0,2.5571,2.5572,2.5573,2.5477,2.5474,2.547,2.5467,2.552,2.5524,2.5529,0,0,0,0,0,0,0,0,0,0,0,0,0,2.535,2.5353,2.5523,2.5524,2.5524,2.5571,2.5572,2.5573,2.5477,2.5473,2.547,2.5466,2.5519,2.5524,2.5529,0,0,0,0,0,0,0,0,0,0,0,0,0,2.5415,2.5355,2.5523,2.5482,2.5479,2.5571,2.5572,2.5573,2.5478,2.5473,2.5469,2.5464,2.5517,2.5523,2.553,2.5665,0,0,2.555,2.5553,0,0,0,0,0,0,0,0,2.5411,2.5421,2.5488,2.5485,2.5482,2.5513,2.553,2.5604,2.5479,2.5479,2.5467,2.5462,2.5522,2.5528,2.5547,2.5667,2.567,2.555,2.5554,2.5557,2.5559,0,0,0,0,0,0,0,2.5407,2.5418,2.5542,2.5489,2.5485,2.5462,2.5466,2.5544,2.5526,2.5478,2.5471,2.5478,2.5519,2.5541,2.5548,2.567,2.555,2.5556,2.556,2.5562,2.5903,2.5907,0,0,0,0,0,0,2.5407,2.5415,2.5541,2.5544,2.5434,2.5469,2.5474,2.5508,2.5525,2.5523,2.5482,2.5474,2.5532,2.554,2.5549,2.5708,2.5557,2.5563,2.5567,2.5898,2.5904,2.5909,0,0,0,0,0,0,2.5404,2.5419,2.5539,2.5478,2.5491,2.5477,2.5517,2.5511,2.5533,2.5528,2.5525,2.5508,2.5529,2.554,2.5636,2.5708,2.5566,2.5572,2.5892,2.5899,2.5907,2.6027,0,0,0,0,0,0,2.5399,2.5418,2.5469,2.5479,2.5495,2.5625,2.5521,2.5516,2.5544,2.5533,2.5551,2.555,2.5526,2.5627,2.5643,2.5715,2.5577,2.5885,2.5895,2.5904,2.6016,2.6038,2.6056,0,0,0,0,0,2.5393,2.5502,2.5472,2.5488,2.5558,2.5629,2.5638,2.5608,2.555,2.5601,2.5598,2.5549,2.5698,2.5638,2.5655,2.573,2.588,2.5892,2.5903,2.6007,2.6033,2.6055,0,0,0,0,0,0,2.5502,2.5503,2.547,2.5585,2.5607,2.5613,2.5676,2.5637,2.5677,2.5665,2.5627,2.5632,2.5736,2.5742,2.5675,2.5861,2.5779,2.5795,2.5853,2.5877,2.5897,2.5893,2.5583,0,0,0,0,0,2.5539,2.5596,2.5594,2.5696,2.5709,2.5691,2.5721,2.5696,2.5718,2.5727,2.5731,2.5756,2.5807,2.5843,2.5891,2.6017,2.6019,2.6076,2.6096,2.6112,2.6126,2.6193,2.6218,2.5947,2.5947,2.5947,0,0,2.5617,2.5624,2.5663,2.5718,2.5732,2.5793,2.57,2.5768,2.5812,2.5738,2.5829,2.5833,2.5857,2.5969,2.6018,2.5977,2.6202,2.6127,2.614,2.6145,2.6207,2.6233,2.6256,2.5955,2.5954,2.5952,0,0,2.5789,2.5801,2.5886,2.5902,2.5925,2.5912,2.5933,2.5944,2.5944,2.6034,2.5979,2.6032,2.6122,2.6142,2.6164,2.6343,2.6299,2.636,2.6463,2.6528,2.655,2.6568,2.6632,2.6655,2.6373,2.6374,2.6374,0,2.5883,2.5971,2.5936,2.6007,2.6033,2.5967,2.6054,2.6072,2.611,2.6129,2.6083,2.6194,2.6206,2.6321,2.6365,2.6385,2.6407,2.6357,2.6549,2.6568,2.6585,2.6645,2.6669,2.6381,2.638,2.6379,2.6379,0,2.6086,2.6148,2.6214,2.6251,2.6284,2.6363,2.634,2.6378,2.635,2.6342,2.6435,2.6447,2.6495,2.6521,2.6494,2.6632,2.6606,2.6555,2.6473,2.6618,2.6674,2.6697,2.6391,2.6389,2.6386,2.6385,0,0,2.6329,2.6344,2.6369,2.6384,2.6404,2.6452,2.6528,2.6574,2.6607,2.6636,2.6698,2.6776,2.6729,2.6754,2.6729,2.6786,2.6927,2.6728,2.6728,2.6764,2.7079,2.7117,2.7144,2.6897,2.6902,2.6905,2.7076,0,2.65,2.6629,2.6599,2.6727,2.6784,2.6721,2.6787,2.6807,2.6802,2.685,2.6844,2.69,2.6833,2.6848,2.6901,2.6898,2.6989,2.6885,2.6956,2.6959,2.6952,2.7173,2.7214,2.7375,2.7098,2.7102,2.7104,0,2.6716,2.6751,2.6885,2.6894,2.6917,2.6977,2.7016,2.7063,2.7084,2.7076,2.7103,2.7067,2.7142,2.7059,2.7163,2.7093,2.712,2.7122,2.7128,2.7133,2.7041,2.7185,2.7425,2.745,2.7138,2.7136,2.7133,0,2.688,2.696,2.705,2.7066,2.7079,2.7123,2.7131,2.7147,2.7176,2.7211,2.723,2.7274,2.7298,2.7333,2.7309,2.7251,2.7417,2.7332,2.7413,2.7414,2.7451,2.7449,2.7699,2.7469,2.7468,2.7468,2.7467,0,2.7073,2.7158,2.7124,2.7179,2.7272,2.7236,2.7329,2.7329,2.7344,2.7399,2.7348,2.7401,2.7367,2.7417,2.7399,2.7488,2.7499,2.7495,2.7489,2.75,2.75,2.7517,2.7505,2.7474,2.7473,2.7472,2.747,0,2.7272,2.7253,2.7347,2.7351,2.7354,2.7422,2.7426,2.7478,2.7468,2.7539,2.7553,2.7539,2.7595,2.7575,2.7635,2.7623,2.7736,2.7716,2.7728,2.7723,2.7805,2.7798,2.8076,2.811,2.7857,2.786,2.7862,0,2.7397,2.746,2.7471,2.7503,2.7514,2.7568,2.7597,2.7564,2.7597,2.7625,2.7674,2.7725,2.7765,2.7857,2.7853,2.7899,2.7879,2.7973,2.7886,2.7894,2.788,2.7877,2.7883,2.7991,2.7994,2.7996,2.7998,0,2.7621,2.7608,2.7651,2.7692,2.7728,2.7759,2.7785,2.7815,2.7784,2.7823,2.7879,2.791,2.7971,2.8022,2.8063,2.8072,2.8031,2.8026,2.8047,2.8058,2.8063,2.8061,2.7776,2.802,2.8017,2.8016,2.8015,2.8014,2.7786,2.7839,2.7854,2.7905,2.792,2.7946,2.7994,2.799,2.8036,2.8082,2.8061,2.8126,2.8144,2.8195,2.8209,2.826,2.8223,2.8254,2.8262,2.827,2.828,2.8054,2.8267,2.8267,2.8266,2.8265,2.8265,0,2.8007,2.8013,2.806,2.8097,2.8137,2.8093,2.8119,2.8156,2.8213,2.8234,2.8273,2.8337,2.8387,2.8386,2.8432,2.8473,2.8455,2.8486,2.8483,2.8485,2.8311,2.8287,2.85,2.85,2.85,2.85,2.85,2.8499,2.8126,2.8213,2.8202,2.8296,2.8302,2.8364,2.8383,2.8406,2.8422,2.8496,2.8536,2.8535,2.8547,2.8593,2.8637,2.8635,2.8654,2.8693,2.8684,2.8521,2.8498,2.8476,2.8454,2.8697,2.8698,2.8854,2.8856,2.8857]},{"header":{"parameterUnit":"m.s-1","parameterCategory":1,"la1":30.2991,"la2":30.254,"lo1":-89.0895,"lo2":-89.0444,"dy":0.0017,"dx":0.0017,"nx":28,"ny":28,"refTime":"2023-08-01T21:00:00:Z","depth":0,"parameterNumber":3,"parameterNumberName":"V-component_of_WINDS"},"data":[0,0,0,0,0,0,0,0,0,0,0,0,0,0,0,0,0,0,0,0,0,0,0,0,0,0,0,0,0,0,0,0,0,0,0,0,0,0,0,0,0,0,0,0,0,0,0,0,0,0,0,0,0,0,0,0,0,0,-0.6023,-0.6023,0,-0.6045,-0.6046,-0.6046,-0.6053,-0.6053,-0.6053,-0.6053,-0.6077,-0.6077,-0.6078,0,0,0,0,0,0,0,0,0,0,0,0,0,-0.5987,-0.5988,-0.6023,-0.6023,-0.6023,-0.6045,-0.6046,-0.6046,-0.6053,-0.6053,-0.6053,-0.6053,-0.6076,-0.6077,-0.6078,0,0,0,0,0,0,0,0,0,0,0,0,0,-0.6005,-0.5988,-0.6022,-0.603,-0.603,-0.6045,-0.6046,-0.6046,-0.6054,-0.6053,-0.6053,-0.6053,-0.6076,-0.6077,-0.6078,-0.6088,0,0,-0.6081,-0.6082,0,0,0,0,0,0,0,0,-0.6004,-0.6007,-0.6028,-0.6029,-0.603,-0.6046,-0.6042,-0.606,-0.6054,-0.6045,-0.6053,-0.6053,-0.6067,-0.6068,-0.6073,-0.6089,-0.609,-0.6081,-0.6082,-0.6083,-0.6083,0,0,0,0,0,0,0,-0.6003,-0.6006,-0.6032,-0.6029,-0.603,-0.6032,-0.6035,-0.6045,-0.6056,-0.6046,-0.6046,-0.6049,-0.6067,-0.6072,-0.6074,-0.609,-0.6081,-0.6082,-0.6083,-0.6083,-0.6116,-0.6117,0,0,0,0,0,0,-0.6,-0.6005,-0.6031,-0.6032,-0.6017,-0.6033,-0.6036,-0.6041,-0.6056,-0.6058,-0.6049,-0.6049,-0.607,-0.6072,-0.6075,-0.6088,-0.6083,-0.6084,-0.6084,-0.6116,-0.6116,-0.6117,0,0,0,0,0,0,-0.6,-0.6003,-0.603,-0.6019,-0.6022,-0.6034,-0.604,-0.6042,-0.6047,-0.6059,-0.6061,-0.6052,-0.607,-0.6073,-0.6085,-0.6088,-0.6084,-0.6085,-0.6116,-0.6116,-0.6117,-0.6113,0,0,0,0,0,0,-0.5999,-0.6002,-0.6006,-0.6019,-0.6023,-0.6039,-0.604,-0.6042,-0.6049,-0.6049,-0.6062,-0.6064,-0.607,-0.6083,-0.6086,-0.609,-0.6086,-0.6116,-0.6116,-0.6116,-0.6113,-0.6113,-0.6113,0,0,0,0,0,-0.5997,-0.6003,-0.6006,-0.6009,-0.6027,-0.6039,-0.6042,-0.6049,-0.6049,-0.6052,-0.606,-0.6063,-0.6088,-0.6084,-0.6087,-0.6092,-0.6115,-0.6116,-0.6116,-0.6113,-0.6113,-0.6113,0,0,0,0,0,0,-0.599,-0.6005,-0.6008,-0.6018,-0.6027,-0.6041,-0.6045,-0.6049,-0.6059,-0.6059,-0.6067,-0.607,-0.6082,-0.6088,-0.6084,-0.6103,-0.6102,-0.6103,-0.6098,-0.6098,-0.6099,-0.6097,-0.6087,0,0,0,0,0,-0.599,-0.5998,-0.6011,-0.6019,-0.6023,-0.6034,-0.6039,-0.6044,-0.6054,-0.6058,-0.6067,-0.6077,-0.6087,-0.6093,-0.6103,-0.6114,-0.6118,-0.6119,-0.6119,-0.6119,-0.612,-0.6128,-0.6129,-0.6118,-0.6118,-0.6118,0,0,-0.5989,-0.5998,-0.6003,-0.6018,-0.6025,-0.6035,-0.6037,-0.6046,-0.6053,-0.6059,-0.6071,-0.6078,-0.609,-0.6102,-0.6107,-0.6107,-0.6124,-0.612,-0.612,-0.6121,-0.6129,-0.613,-0.6131,-0.6119,-0.6119,-0.6119,0,0,-0.5992,-0.5999,-0.6007,-0.6016,-0.6028,-0.6035,-0.6037,-0.605,-0.6055,-0.6067,-0.6072,-0.6081,-0.6098,-0.6106,-0.6113,-0.6121,-0.6125,-0.6124,-0.6126,-0.6134,-0.6135,-0.6135,-0.6139,-0.6141,-0.6125,-0.6125,-0.6125,0,-0.5989,-0.6003,-0.6011,-0.602,-0.6027,-0.6034,-0.6043,-0.6051,-0.6065,-0.607,-0.607,-0.6092,-0.61,-0.6115,-0.6117,-0.6122,-0.6126,-0.6123,-0.6134,-0.6135,-0.6136,-0.6139,-0.6141,-0.6125,-0.6125,-0.6125,-0.6125,0,-0.5999,-0.6009,-0.6014,-0.6029,-0.6036,-0.6045,-0.6056,-0.6062,-0.6067,-0.6075,-0.6088,-0.6098,-0.6111,-0.6115,-0.6119,-0.6131,-0.6131,-0.6132,-0.6131,-0.6136,-0.614,-0.6142,-0.6125,-0.6125,-0.6125,-0.6125,0,0,-0.5997,-0.6017,-0.6019,-0.6027,-0.6041,-0.6049,-0.6059,-0.6072,-0.6078,-0.6088,-0.6098,-0.6113,-0.6115,-0.6122,-0.6128,-0.6135,-0.6142,-0.6135,-0.6136,-0.6137,-0.6157,-0.6156,-0.6157,-0.6145,-0.6145,-0.6145,-0.6156,0,-0.6003,-0.602,-0.6029,-0.6043,-0.6053,-0.6061,-0.607,-0.608,-0.6088,-0.6098,-0.6106,-0.6117,-0.6119,-0.6123,-0.613,-0.614,-0.6146,-0.6139,-0.6154,-0.6155,-0.6151,-0.6159,-0.6158,-0.6167,-0.6158,-0.6158,-0.6158,0,-0.6011,-0.6022,-0.6037,-0.6052,-0.6057,-0.6064,-0.6078,-0.6087,-0.61,-0.6105,-0.6114,-0.612,-0.6132,-0.6131,-0.6148,-0.6143,-0.615,-0.6156,-0.6156,-0.6158,-0.6156,-0.6161,-0.617,-0.6172,-0.616,-0.616,-0.616,0,-0.6008,-0.6027,-0.6039,-0.6045,-0.6063,-0.6068,-0.6076,-0.6089,-0.6096,-0.6108,-0.6114,-0.6127,-0.6134,-0.6144,-0.6154,-0.6152,-0.6171,-0.617,-0.6176,-0.6176,-0.6179,-0.6179,-0.6189,-0.6183,-0.6183,-0.6183,-0.6183,0,-0.6013,-0.6023,-0.6038,-0.6046,-0.6057,-0.6068,-0.6078,-0.6087,-0.6098,-0.6108,-0.6116,-0.6125,-0.6137,-0.6148,-0.6156,-0.617,-0.6173,-0.6178,-0.618,-0.6178,-0.6177,-0.6182,-0.6182,-0.6184,-0.6184,-0.6183,-0.6183,0,-0.6012,-0.6023,-0.6037,-0.6053,-0.6058,-0.6065,-0.6079,-0.6087,-0.6096,-0.6109,-0.6112,-0.6126,-0.614,-0.6151,-0.6168,-0.6174,-0.6188,-0.6191,-0.6184,-0.6185,-0.6191,-0.619,-0.6205,-0.6208,-0.62,-0.62,-0.62,0,-0.6015,-0.6022,-0.604,-0.6047,-0.6055,-0.6066,-0.6074,-0.6086,-0.6094,-0.611,-0.6117,-0.6131,-0.6143,-0.6164,-0.6176,-0.619,-0.6193,-0.6198,-0.6195,-0.6193,-0.6194,-0.6194,-0.6195,-0.6198,-0.6198,-0.6198,-0.6198,0,-0.6018,-0.6024,-0.6035,-0.6049,-0.6059,-0.607,-0.6082,-0.6088,-0.6101,-0.6111,-0.6125,-0.6134,-0.6153,-0.6167,-0.6183,-0.6192,-0.6198,-0.6199,-0.6201,-0.6198,-0.6194,-0.6197,-0.6185,-0.6198,-0.6198,-0.6198,-0.6198,-0.6198,-0.6019,-0.6027,-0.6041,-0.6054,-0.6064,-0.6075,-0.6084,-0.6095,-0.6107,-0.6123,-0.6129,-0.6144,-0.6158,-0.618,-0.6189,-0.6202,-0.6202,-0.6205,-0.6206,-0.6206,-0.6207,-0.6193,-0.6204,-0.6204,-0.6204,-0.6204,-0.6204,0,-0.6024,-0.6034,-0.6046,-0.6062,-0.6073,-0.6078,-0.6091,-0.61,-0.6113,-0.6126,-0.6138,-0.6155,-0.617,-0.6184,-0.6199,-0.6207,-0.621,-0.6211,-0.621,-0.6212,-0.6205,-0.6202,-0.6208,-0.6208,-0.6208,-0.6208,-0.6208,-0.6208,-0.6027,-0.6041,-0.6048,-0.6068,-0.6078,-0.6092,-0.61,-0.6111,-0.6121,-0.614,-0.6153,-0.6162,-0.6175,-0.6192,-0.6207,-0.621,-0.6216,-0.6216,-0.6221,-0.6213,-0.6213,-0.6212,-0.6209,-0.6217,-0.6217,-0.6227,-0.6227,-0.6227]}]]